Montello, Wisconsin, United States (53949)
Lat: 43.79N, Lon: 89.32W
Wx Zone: WIZ046
Local Info
Past Weather Observations for Friday, July 25, 2014

NOTE: This archive is for the closest National Weather Service station to Montello. Information may differ from the station used for current weather conditions.

Click here for Long-term Archive

Time Weather Temperature Dewpoint Humidity Pressure Winds Precip Visibility
23:55
Overcast
64°F / 18°C 61°F / 16°C 88% 29.89 in
(1012 mb)
SW 4.6 mph
(SW 7 kph)
- 10SM
23:35
Overcast
64°F / 18°C 61°F / 16°C 88% 29.89 in
(1012 mb)
SSE 5.8 mph
(SSE 9 kph)
- 10SM
23:15
Overcast
64°F / 18°C 61°F / 16°C 88% 29.89 in
(1012 mb)
SSE 5.8 mph
(SSE 9 kph)
- 10SM
22:55
Overcast
64°F / 18°C 59°F / 15°C 83% 29.89 in
(1012 mb)
SSE 6.9 mph
(SSE 11 kph)
- 10SM
22:35
Overcast
64°F / 18°C 59°F / 15°C 83% 29.89 in
(1012 mb)
S 8.1 mph
(S 13 kph)
- 10SM
22:15
Mostly Cloudy
64°F / 18°C 59°F / 15°C 83% 29.89 in
(1012 mb)
S 8.1 mph
(S 13 kph)
- 10SM
21:55
Partly Cloudy
64°F / 18°C 59°F / 15°C 83% 29.89 in
(1012 mb)
S 8.1 mph
(S 13 kph)
- 10SM
21:35
Clear
64°F / 18°C 59°F / 15°C 83% 29.89 in
(1012 mb)
S 6.9 mph
(S 11 kph)
- 10SM
21:15
Clear
64°F / 18°C 59°F / 15°C 83% 29.89 in
(1012 mb)
SSE 8.1 mph
(SSE 13 kph)
- 10SM
20:55
Clear
64°F / 18°C 59°F / 15°C 83% 29.89 in
(1012 mb)
S 6.9 mph
(S 11 kph)
- 10SM
20:35
Mostly Cloudy
66°F / 19°C 59°F / 15°C 78% 29.89 in
(1012 mb)
S 8.1 mph
(S 13 kph)
- 10SM
20:15
Overcast
68°F / 20°C 61°F / 16°C 78% 29.89 in
(1012 mb)
SSE 8.1 mph
(SSE 13 kph)
- 10SM
19:55
Overcast
68°F / 20°C 61°F / 16°C 78% 29.89 in
(1012 mb)
S 8.1 mph
(S 13 kph)
- 10SM
19:35
Overcast
68°F / 20°C 61°F / 16°C 78% 29.89 in
(1012 mb)
S 4.6 mph
(S 7 kph)
- 10SM
19:15
Overcast
68°F / 20°C 61°F / 16°C 78% 29.92 in
(1013 mb)
SSE 5.8 mph
(SSE 9 kph)
- 10SM
18:55
Overcast
68°F / 20°C 61°F / 16°C 78% 29.92 in
(1013 mb)
SW 6.9 mph
(SW 11 kph)
- 10SM
18:35
Overcast
68°F / 20°C 61°F / 16°C 78% 29.89 in
(1012 mb)
SSE 5.8 mph
(SSE 9 kph)
- 10SM
18:15
Overcast
70°F / 21°C 61°F / 16°C 73% 29.89 in
(1012 mb)
S 8.1 mph
(S 13 kph)
- 10SM
17:55
Overcast
70°F / 21°C 59°F / 15°C 69% 29.89 in
(1012 mb)
S 8.1 mph
(S 13 kph)
- 10SM
17:35
Overcast
70°F / 21°C 61°F / 16°C 73% 29.89 in
(1012 mb)
S 8.1 mph
(S 13 kph)
- 10SM
17:15
Overcast
70°F / 21°C 59°F / 15°C 69% 29.89 in
(1012 mb)
S 9.2 mph
(S 15 kph)
- 10SM
16:55
Overcast
70°F / 21°C 61°F / 16°C 73% 29.89 in
(1012 mb)
S 5.8 mph
(S 9 kph)
- 10SM
16:35
Overcast
70°F / 21°C 59°F / 15°C 69% 29.92 in
(1013 mb)
S 6.9 mph
(S 11 kph)
- 10SM
16:15
Overcast
70°F / 21°C 59°F / 15°C 69% 29.92 in
(1013 mb)
SSE 6.9 mph
(SSE 11 kph)
- 10SM
15:55
Overcast
70°F / 21°C 59°F / 15°C 69% 29.92 in
(1013 mb)
SSE 4.6 mph
(SSE 7 kph)
- 10SM
15:35
Overcast
70°F / 21°C 59°F / 15°C 69% 29.92 in
(1013 mb)
SSE 6.9 mph
(SSE 11 kph)
- 10SM
15:15
Overcast
70°F / 21°C 59°F / 15°C 69% 29.92 in
(1013 mb)
S 5.8 mph
(S 9 kph)
- 10SM
14:55
Overcast
70°F / 21°C 59°F / 15°C 69% 29.92 in
(1013 mb)
S 4.6 mph
(S 7 kph)
- 10SM
14:35
Overcast
68°F / 20°C 59°F / 15°C 73% 29.92 in
(1013 mb)
S 4.6 mph
(S 7 kph)
- 10SM
14:15
Overcast
68°F / 20°C 59°F / 15°C 73% 29.92 in
(1013 mb)
S 4.6 mph
(S 7 kph)
- 10SM
13:55
Overcast
68°F / 20°C 57°F / 14°C 69% 29.92 in
(1013 mb)
SW 8.1 mph
(SW 13 kph)
- 10SM
13:35
Overcast
68°F / 20°C 57°F / 14°C 69% 29.92 in
(1013 mb)
SSE 8.1 mph
(SSE 13 kph)
- 10SM
13:15
Overcast
70°F / 21°C 59°F / 15°C 69% 29.92 in
(1013 mb)
SW 9.2 mph
(SW 15 kph)
- 10SM
12:55
Overcast
70°F / 21°C 59°F / 15°C 69% 29.92 in
(1013 mb)
SW 13.8 mph
(SW 22 kph)
- 10SM
12:35
Overcast
70°F / 21°C 59°F / 15°C 69% 29.92 in
(1013 mb)
SSE 12.7 mph
(SSE 20 kph)
- 10SM
12:15
Overcast
68°F / 20°C 57°F / 14°C 69% 29.92 in
(1013 mb)
S 13.8 mph
(S 22 kph)
- 10SM
11:55
Overcast
66°F / 19°C 59°F / 15°C 78% 29.92 in
(1013 mb)
S 9.2 mph
(S 15 kph)
- 10SM
11:35
Overcast
64°F / 18°C 59°F / 15°C 83% 29.92 in
(1013 mb)
S 8.1 mph
(S 13 kph)
- 10SM
11:15
Overcast
63°F / 17°C 59°F / 15°C 88% 29.95 in
(1014 mb)
SSE 4.6 mph
(SSE 7 kph)
- 10SM
10:55
Overcast
63°F / 17°C 59°F / 15°C 88% 29.95 in
(1014 mb)
Calm - 10SM
10:35
Overcast
Drizzle
63°F / 17°C 57°F / 14°C 83% 29.95 in
(1014 mb)
SSE 4.6 mph
(SSE 7 kph)
- 10SM
10:15
Overcast
63°F / 17°C 57°F / 14°C 83% 29.95 in
(1014 mb)
S 9.2 mph
(S 15 kph)
- 10SM
09:55
Mostly Cloudy
63°F / 17°C 59°F / 15°C 88% 29.95 in
(1014 mb)
SW 8.1 mph
(SW 13 kph)
- 10SM
09:35
Overcast
Drizzle
63°F / 17°C 57°F / 14°C 83% 29.95 in
(1014 mb)
S 12.7 mph
(S 20 kph)
- 10SM
09:15
Overcast
Rain
63°F / 17°C 57°F / 14°C 83% 29.95 in
(1014 mb)
S 15 mph
(S 24 kph)
- 10SM
08:55
Overcast
Drizzle
63°F / 17°C 55°F / 13°C 77% 29.95 in
(1014 mb)
S 11.5 mph
(S 19 kph)
- 10SM
08:35
Partly Cloudy
Light Rain
63°F / 17°C 55°F / 13°C 77% 29.95 in
(1014 mb)
S 11.5 mph
(S 19 kph)
- 10SM
08:15
Partly Cloudy
64°F / 18°C 55°F / 13°C 73% 29.92 in
(1013 mb)
S 13.8 mph
(S 22 kph)
- 10SM
07:55
Overcast
63°F / 17°C 54°F / 12°C 73% 29.95 in
(1014 mb)
S 11.5 mph
(S 19 kph)
- 10SM
07:35
Overcast
64°F / 18°C 54°F / 12°C 68% 29.95 in
(1014 mb)
S 10.4 mph
(S 17 kph)
- 10SM
07:15
Overcast
63°F / 17°C 54°F / 12°C 73% 29.98 in
(1015 mb)
S 13.8 mph
(S 22 kph)
- 10SM
06:55
Overcast
64°F / 18°C 54°F / 12°C 68% 30.01 in
(1016 mb)
SSE 13.8 mph
(SSE 22 kph)
- 10SM
06:30
Mostly Cloudy
64°F / 18°C 54°F / 12°C 68% 30.01 in
(1016 mb)
SW 13.8 mph
(SW 22 kph)
- 10SM
06:15
Partly Cloudy
63°F / 17°C 54°F / 12°C 73% 30.01 in
(1016 mb)
SSE 13.8 mph
(SSE 22 kph)
- 10SM
05:55
Partly Cloudy
63°F / 17°C 54°F / 12°C 73% 30.04 in
(1017 mb)
SSE 9.2 mph
(SSE 15 kph)
- 10SM
05:35
Partly Cloudy
63°F / 17°C 54°F / 12°C 73% 30.04 in
(1017 mb)
SSE 10.4 mph
(SSE 17 kph)
- 10SM
05:15
Clear
63°F / 17°C 54°F / 12°C 73% 30.04 in
(1017 mb)
SW 10.4 mph
(SW 17 kph)
- 10SM
04:55
Clear
63°F / 17°C 54°F / 12°C 73% 30.04 in
(1017 mb)
S 9.2 mph
(S 15 kph)
- 10SM
04:35
Clear
63°F / 17°C 54°F / 12°C 73% 30.04 in
(1017 mb)
SSE 9.2 mph
(SSE 15 kph)
- 10SM
04:15
Clear
Light Rain
61°F / 16°C 54°F / 12°C 77% 30.04 in
(1017 mb)
SW 9.2 mph
(SW 15 kph)
- 10SM
03:55
Partly Cloudy
61°F / 16°C 54°F / 12°C 77% 30.04 in
(1017 mb)
SW 6.9 mph
(SW 11 kph)
- 10SM
03:35
Partly Cloudy
61°F / 16°C 54°F / 12°C 77% 30.01 in
(1016 mb)
S 6.9 mph
(S 11 kph)
- 10SM
03:15
Clear
61°F / 16°C 54°F / 12°C 77% 29.98 in
(1015 mb)
S 8.1 mph
(S 13 kph)
- 10SM
02:55
Clear
61°F / 16°C 54°F / 12°C 77% 30.01 in
(1016 mb)
S 6.9 mph
(S 11 kph)
- 10SM
02:35
Clear
61°F / 16°C 54°F / 12°C 77% 30.01 in
(1016 mb)
SSE 6.9 mph
(SSE 11 kph)
- 10SM
02:15
Clear
59°F / 15°C 54°F / 12°C 82% 29.98 in
(1015 mb)
S 6.9 mph
(S 11 kph)
- 10SM
01:55
Clear
59°F / 15°C 54°F / 12°C 82% 30.01 in
(1016 mb)
S 5.8 mph
(S 9 kph)
- 10SM
01:35
Clear
59°F / 15°C 54°F / 12°C 82% 30.01 in
(1016 mb)
SSE 3.5 mph
(SSE 6 kph)
- 10SM
01:15
Clear
61°F / 16°C 55°F / 13°C 83% 30.01 in
(1016 mb)
SSE 4.6 mph
(SSE 7 kph)
- 10SM
00:55
Partly Cloudy
63°F / 17°C 54°F / 12°C 73% 30.04 in
(1017 mb)
SW 4.6 mph
(SW 7 kph)
- 10SM
00:35
Partly Cloudy
63°F / 17°C 55°F / 13°C 77% 30.04 in
(1017 mb)
SW 5.8 mph
(SW 9 kph)
- 10SM
00:15
Clear
63°F / 17°C 55°F / 13°C 77% 30.04 in
(1017 mb)
SW 6.9 mph
(SW 11 kph)
- 10SM
Time Weather Temperature Dewpoint Humidity Pressure Winds Precip Visibility


Weather for websites

WeatherForYou.com, LLC is not responsible for any damages or problems caused by this service. Current weather conditions are obtained from the closest station including government and personal stations which may have varying degrees of accuracy. Weather forecasts are derived from the NOAA NDFD. Like all things, this site belongs to Jesus Christ... He just trusts me to maintain it. If you have any questions or comments email webmaster@weatherforyou.com

Copyright © 2014, WeatherForYou.com LLC. All rights reserved.